| Back to River Map | <<< Previous Forecast Point | | | Next Forecast Point >>> | Printer Version | Graph Version |  |
|
WEST WALKER RIVER - HOYE BRIDGE (HOYN2)
| Latitude: 38.73º N | Longitude: 119.43º W | Elevation: 4980 Feet | | Forecast Type: Unofficial Location |
| Location: Douglas County in Nevada | Bulletin Group: Eastern Sierra | River Group: Eastern Sierra |
| Issuance Time: | May 05 2026 at 7:24 AM PDT | Next Issuance: | May 06 2026 at 9:00 AM PDT
| |
| Action/Monitor: 7.0 Feet | Minor Flood: 8.0 Feet | Moderate Flood: 9.0 Feet | Major Flood: 10.0 Feet |
# Tabular Observed and Forecast Hydrograph Information
#
# Location: West Walker River - Hoye Bridge (HOYN2)
#
# File Generation Time: 05/05/2026 at 07:25 AM PDT
# Data Interval: 1 Hour
#
# Most Recent Date & Time of Maximum Observed: 05/05/2026 at 07:00 AM PDT
# Maximum Observed Stage: 2.86 Feet
# Maximum Observed Flow: 332 cfs
#
# Earliest Date & Time of Maximum Forecast: 05/09/2026 at 05:00 PM PDT
# Maximum Forecast Stage: 3.04 Feet
# Maximum Forecast Flow: 373 cfs
#
# OBSERVED
#
# Date & Time (Local) Stage (Feet) Flow (cfs) Trend Observed Status
# ---------------------------------------------------------------------------------
04/30/2026 07 AM PDT 2.41 239 Normal
04/30/2026 08 AM PDT 2.41 239 0 Normal
04/30/2026 09 AM PDT 2.41 239 0 Normal
04/30/2026 10 AM PDT 2.41 239 0 Normal
04/30/2026 11 AM PDT 2.41 239 0 Normal
04/30/2026 12 PM PDT 2.40 237 - Normal
04/30/2026 01 PM PDT 2.40 237 0 Normal
04/30/2026 02 PM PDT 2.40 237 0 Normal
04/30/2026 03 PM PDT 2.39 235 - Normal
04/30/2026 04 PM PDT 2.37 231 - Normal
04/30/2026 05 PM PDT 2.34 226 - Normal
04/30/2026 06 PM PDT 2.32 222 - Normal
04/30/2026 07 PM PDT 2.31 220 - Normal
04/30/2026 08 PM PDT 2.30 218 - Normal
04/30/2026 09 PM PDT 2.30 218 0 Normal
04/30/2026 10 PM PDT 2.29 217 - Normal
04/30/2026 11 PM PDT 2.29 217 0 Normal
05/01/2026 12 AM PDT 2.29 217 0 Normal
05/01/2026 01 AM PDT 2.28 215 - Normal
05/01/2026 02 AM PDT 2.29 217 + Normal
05/01/2026 03 AM PDT 2.28 215 - Normal
05/01/2026 04 AM PDT 2.28 215 0 Normal
05/01/2026 05 AM PDT 2.28 215 0 Normal
05/01/2026 06 AM PDT 2.28 215 0 Normal
05/01/2026 07 AM PDT 2.28 215 0 Normal
05/01/2026 08 AM PDT 2.28 215 0 Normal
05/01/2026 09 AM PDT 2.28 215 0 Normal
05/01/2026 10 AM PDT 2.28 215 0 Normal
05/01/2026 11 AM PDT 2.28 215 0 Normal
05/01/2026 12 PM PDT 2.28 215 0 Normal
05/01/2026 01 PM PDT 2.28 215 0 Normal
05/01/2026 02 PM PDT 2.27 213 - Normal
05/01/2026 03 PM PDT 2.28 215 + Normal
05/01/2026 04 PM PDT 2.28 215 0 Normal
05/01/2026 05 PM PDT 2.28 215 0 Normal
05/01/2026 06 PM PDT 2.27 213 - Normal
05/01/2026 07 PM PDT 2.27 213 0 Normal
05/01/2026 08 PM PDT 2.27 213 0 Normal
05/01/2026 09 PM PDT 2.27 213 0 Normal
05/01/2026 10 PM PDT 2.27 213 0 Normal
05/01/2026 11 PM PDT 2.27 213 0 Normal
05/02/2026 12 AM PDT 2.27 213 0 Normal
05/02/2026 01 AM PDT 2.27 213 0 Normal
05/02/2026 02 AM PDT 2.27 213 0 Normal
05/02/2026 03 AM PDT 2.27 213 0 Normal
05/02/2026 04 AM PDT 2.28 215 + Normal
05/02/2026 05 AM PDT 2.28 215 0 Normal
05/02/2026 06 AM PDT 2.28 215 0 Normal
05/02/2026 07 AM PDT 2.28 215 0 Normal
05/02/2026 08 AM PDT 2.28 215 0 Normal
05/02/2026 09 AM PDT 2.28 215 0 Normal
05/02/2026 10 AM PDT 2.29 217 + Normal
05/02/2026 11 AM PDT 2.29 217 0 Normal
05/02/2026 12 PM PDT 2.29 217 0 Normal
05/02/2026 01 PM PDT 2.29 217 0 Normal
05/02/2026 02 PM PDT 2.29 217 0 Normal
05/02/2026 03 PM PDT 2.29 217 0 Normal
05/02/2026 04 PM PDT 2.30 218 + Normal
05/02/2026 05 PM PDT 2.35 228 + Normal
05/02/2026 06 PM PDT 2.38 233 + Normal
05/02/2026 07 PM PDT 2.40 237 + Normal
05/02/2026 08 PM PDT 2.41 239 + Normal
05/02/2026 09 PM PDT 2.41 239 0 Normal
05/02/2026 10 PM PDT 2.42 241 + Normal
05/02/2026 11 PM PDT 2.42 241 0 Normal
05/03/2026 12 AM PDT 2.42 241 0 Normal
05/03/2026 01 AM PDT 2.42 241 0 Normal
05/03/2026 02 AM PDT 2.43 243 + Normal
05/03/2026 03 AM PDT 2.43 243 0 Normal
05/03/2026 04 AM PDT 2.43 243 0 Normal
05/03/2026 05 AM PDT 2.43 243 0 Normal
05/03/2026 06 AM PDT 2.43 243 0 Normal
05/03/2026 07 AM PDT 2.43 243 0 Normal
05/03/2026 08 AM PDT 2.43 243 0 Normal
05/03/2026 09 AM PDT 2.43 243 0 Normal
05/03/2026 10 AM PDT 2.44 245 + Normal
05/03/2026 11 AM PDT 2.44 245 0 Normal
05/03/2026 12 PM PDT 2.44 245 0 Normal
05/03/2026 01 PM PDT 2.44 245 0 Normal
05/03/2026 02 PM PDT 2.44 245 0 Normal
05/03/2026 03 PM PDT 2.44 245 0 Normal
05/03/2026 04 PM PDT 2.44 245 0 Normal
05/03/2026 05 PM PDT 2.45 247 + Normal
05/03/2026 06 PM PDT 2.45 247 0 Normal
05/03/2026 07 PM PDT 2.45 247 0 Normal
05/03/2026 08 PM PDT 2.45 247 0 Normal
05/03/2026 09 PM PDT 2.45 247 0 Normal
05/03/2026 10 PM PDT 2.45 247 0 Normal
05/03/2026 11 PM PDT 2.46 249 + Normal
05/04/2026 12 AM PDT 2.46 249 0 Normal
05/04/2026 01 AM PDT 2.46 249 0 Normal
05/04/2026 02 AM PDT 2.46 249 0 Normal
05/04/2026 03 AM PDT 2.46 249 0 Normal
05/04/2026 04 AM PDT 2.47 250 + Normal
05/04/2026 05 AM PDT 2.46 249 - Normal
05/04/2026 06 AM PDT 2.46 249 0 Normal
05/04/2026 07 AM PDT 2.46 249 0 Normal
05/04/2026 08 AM PDT 2.47 250 + Normal
05/04/2026 09 AM PDT 2.47 250 0 Normal
05/04/2026 10 AM PDT 2.47 250 0 Normal
05/04/2026 11 AM PDT 2.47 250 0 Normal
05/04/2026 12 PM PDT 2.47 250 0 Normal
05/04/2026 01 PM PDT 2.48 252 + Normal
05/04/2026 02 PM PDT 2.48 252 0 Normal
05/04/2026 03 PM PDT 2.49 254 + Normal
05/04/2026 04 PM PDT 2.57 270 + Normal
05/04/2026 05 PM PDT 2.66 289 + Normal
05/04/2026 06 PM PDT 2.71 299 + Normal
05/04/2026 07 PM PDT 2.74 306 + Normal
05/04/2026 08 PM PDT 2.75 308 + Normal
05/04/2026 09 PM PDT 2.76 310 + Normal
05/04/2026 10 PM PDT 2.77 312 + Normal
05/04/2026 11 PM PDT 2.78 314 + Normal
05/05/2026 12 AM PDT 2.79 317 + Normal
05/05/2026 01 AM PDT 2.79 317 0 Normal
05/05/2026 02 AM PDT 2.81 321 + Normal
05/05/2026 03 AM PDT 2.82 323 + Normal
05/05/2026 04 AM PDT 2.83 325 + Normal
05/05/2026 05 AM PDT 2.85 330 + Normal
05/05/2026 06 AM PDT 2.86 332 + Normal
05/05/2026 07 AM PDT 2.86 332 0 Normal
#
# FORECAST
#
# Date & Time (Local) Stage (Feet) Flow (cfs) Trend Forecast Status
# ---------------------------------------------------------------------------------
05/05/2026 08 AM PDT 2.87 334 Normal
05/05/2026 09 AM PDT 2.87 334 0 Normal
05/05/2026 10 AM PDT 2.88 337 + Normal
05/05/2026 11 AM PDT 2.88 337 0 Normal
05/05/2026 12 PM PDT 2.88 337 0 Normal
05/05/2026 01 PM PDT 2.88 337 0 Normal
05/05/2026 02 PM PDT 2.88 337 0 Normal
05/05/2026 03 PM PDT 2.88 337 0 Normal
05/05/2026 04 PM PDT 2.88 337 0 Normal
05/05/2026 05 PM PDT 2.88 337 0 Normal
05/05/2026 06 PM PDT 2.88 337 0 Normal
05/05/2026 07 PM PDT 2.88 337 0 Normal
05/05/2026 08 PM PDT 2.88 337 0 Normal
05/05/2026 09 PM PDT 2.87 334 - Normal
05/05/2026 10 PM PDT 2.87 334 0 Normal
05/05/2026 11 PM PDT 2.87 334 0 Normal
05/06/2026 12 AM PDT 2.87 334 0 Normal
05/06/2026 01 AM PDT 2.86 332 - Normal
05/06/2026 02 AM PDT 2.86 332 0 Normal
05/06/2026 03 AM PDT 2.85 330 - Normal
05/06/2026 04 AM PDT 2.85 330 0 Normal
05/06/2026 05 AM PDT 2.85 330 0 Normal
05/06/2026 06 AM PDT 2.84 328 - Normal
05/06/2026 07 AM PDT 2.84 328 0 Normal
05/06/2026 08 AM PDT 2.83 325 - Normal
05/06/2026 09 AM PDT 2.83 325 0 Normal
05/06/2026 10 AM PDT 2.83 325 0 Normal
05/06/2026 11 AM PDT 2.83 325 0 Normal
05/06/2026 12 PM PDT 2.83 325 0 Normal
05/06/2026 01 PM PDT 2.83 325 0 Normal
05/06/2026 02 PM PDT 2.82 323 - Normal
05/06/2026 03 PM PDT 2.82 323 0 Normal
05/06/2026 04 PM PDT 2.83 325 + Normal
05/06/2026 05 PM PDT 2.83 325 0 Normal
05/06/2026 06 PM PDT 2.83 325 0 Normal
05/06/2026 07 PM PDT 2.83 325 0 Normal
05/06/2026 08 PM PDT 2.83 325 0 Normal
05/06/2026 09 PM PDT 2.83 325 0 Normal
05/06/2026 10 PM PDT 2.83 325 0 Normal
05/06/2026 11 PM PDT 2.84 328 + Normal
05/07/2026 12 AM PDT 2.84 328 0 Normal
05/07/2026 01 AM PDT 2.84 328 0 Normal
05/07/2026 02 AM PDT 2.84 328 0 Normal
05/07/2026 03 AM PDT 2.84 328 0 Normal
05/07/2026 04 AM PDT 2.85 330 + Normal
05/07/2026 05 AM PDT 2.85 330 0 Normal
05/07/2026 06 AM PDT 2.85 330 0 Normal
05/07/2026 07 AM PDT 2.85 330 0 Normal
05/07/2026 08 AM PDT 2.85 330 0 Normal
05/07/2026 09 AM PDT 2.86 332 + Normal
05/07/2026 10 AM PDT 2.86 332 0 Normal
05/07/2026 11 AM PDT 2.87 334 + Normal
05/07/2026 12 PM PDT 2.87 334 0 Normal
05/07/2026 01 PM PDT 2.88 337 + Normal
05/07/2026 02 PM PDT 2.88 337 0 Normal
05/07/2026 03 PM PDT 2.89 339 + Normal
05/07/2026 04 PM PDT 2.90 341 + Normal
05/07/2026 05 PM PDT 2.90 341 0 Normal
05/07/2026 06 PM PDT 2.90 341 0 Normal
05/07/2026 07 PM PDT 2.91 343 + Normal
05/07/2026 08 PM PDT 2.91 343 0 Normal
05/07/2026 09 PM PDT 2.91 343 0 Normal
05/07/2026 10 PM PDT 2.92 346 + Normal
05/07/2026 11 PM PDT 2.92 346 0 Normal
05/08/2026 12 AM PDT 2.92 346 0 Normal
05/08/2026 01 AM PDT 2.92 346 0 Normal
05/08/2026 02 AM PDT 2.92 346 0 Normal
05/08/2026 03 AM PDT 2.92 346 0 Normal
05/08/2026 04 AM PDT 2.92 346 0 Normal
05/08/2026 05 AM PDT 2.92 346 0 Normal
05/08/2026 06 AM PDT 2.92 346 0 Normal
05/08/2026 07 AM PDT 2.92 346 0 Normal
05/08/2026 08 AM PDT 2.93 348 + Normal
05/08/2026 09 AM PDT 2.93 348 0 Normal
05/08/2026 10 AM PDT 2.94 350 + Normal
05/08/2026 11 AM PDT 2.94 350 0 Normal
05/08/2026 12 PM PDT 2.95 352 + Normal
05/08/2026 01 PM PDT 2.96 355 + Normal
05/08/2026 02 PM PDT 2.96 355 0 Normal
05/08/2026 03 PM PDT 2.97 357 + Normal
05/08/2026 04 PM PDT 2.98 359 + Normal
05/08/2026 05 PM PDT 2.99 362 + Normal
05/08/2026 06 PM PDT 2.99 362 0 Normal
05/08/2026 07 PM PDT 3.00 364 + Normal
05/08/2026 08 PM PDT 3.00 364 0 Normal
05/08/2026 09 PM PDT 3.00 364 0 Normal
05/08/2026 10 PM PDT 3.00 364 0 Normal
05/08/2026 11 PM PDT 3.00 364 0 Normal
05/09/2026 12 AM PDT 3.00 364 0 Normal
05/09/2026 01 AM PDT 3.00 364 0 Normal
05/09/2026 02 AM PDT 3.00 364 0 Normal
05/09/2026 03 AM PDT 3.00 364 0 Normal
05/09/2026 04 AM PDT 3.00 364 0 Normal
05/09/2026 05 AM PDT 3.00 364 0 Normal
05/09/2026 06 AM PDT 3.00 364 0 Normal
05/09/2026 07 AM PDT 3.00 364 0 Normal
05/09/2026 08 AM PDT 3.00 364 0 Normal
05/09/2026 09 AM PDT 3.00 364 0 Normal
05/09/2026 10 AM PDT 3.01 366 + Normal
05/09/2026 11 AM PDT 3.01 366 0 Normal
05/09/2026 12 PM PDT 3.02 369 + Normal
05/09/2026 01 PM PDT 3.02 369 0 Normal
05/09/2026 02 PM PDT 3.02 369 0 Normal
05/09/2026 03 PM PDT 3.03 371 + Normal
05/09/2026 04 PM PDT 3.03 371 0 Normal
05/09/2026 05 PM PDT 3.04 373 + Normal
05/09/2026 06 PM PDT 3.04 373 0 Normal
05/09/2026 07 PM PDT 3.04 373 0 Normal
05/09/2026 08 PM PDT 3.04 373 0 Normal
05/09/2026 09 PM PDT 3.04 373 0 Normal
05/09/2026 10 PM PDT 3.04 373 0 Normal
05/09/2026 11 PM PDT 3.04 373 0 Normal
05/10/2026 12 AM PDT 3.04 373 0 Normal
05/10/2026 01 AM PDT 3.03 371 - Normal
05/10/2026 02 AM PDT 3.03 371 0 Normal
05/10/2026 03 AM PDT 3.02 369 - Normal
05/10/2026 04 AM PDT 3.02 369 0 Normal
05/10/2026 05 AM PDT 3.02 369 0 Normal
#
# NOTE 1: Stages are rounded to the nearest hundredth (.01) of a foot.
# NOTE 2: Flows are rounded to the nearest (1) cfs.
# NOTE 3: Trends are determined using hourly change in unrounded stage and flow.
# NOTE 4: Maximum Values are determined using unrounded stage and flow.
|